Inquirer Daily News

Weather

Get conditions and forecasts for any City, State, ZIP code or Country:  
Northeast Philadelphia, PA
on Sunday, February 3, 2013

Sunday
Previous Day Next Day
Daily Summary
 ActualAverage (KTTN)Record (KTTN)
Temperature
Mean Temperature °F 32°F  
Max Temperature 30°F 40°F 62°F (2006)
Min Temperature 24°F 24°F 2°F (1881)
Degree Days
Heating Degree Days 38 33  
Month to date heating degree days 99  
Since 1 July heating degree days 3045  
Cooling Degree Days 0 0  
Month to date cooling degree days 0  
Year to date cooling degree days 0  
Moisture
Dew Point 21°F   
Average Humidity 81    
Maximum Humidity 93    
Minimum Humidity 64    
Precipitation
Precipitation 0.03 in 0.07 in 1.57 in (1939)
Month to date precipitation 0.22  
Year to date precipitation 3.38  
Wind
Wind Speed 4 mph   
Max Wind Speed 17 mph   
Max Gust Speed 24 mph   
Visibility 6 miles   
Events Snow   

Key: T is trace of precipitation, MM is missing value
Source: NWS Daily Summary
Time(EST)TemperatureDew PointHumidity Pressure Visibility Wind DirectionWind SpeedGust SpeedPrecipitationEvents Conditions
12:08 AM 24.8°F 21.2°F 86% 30.06 in 4.0 miles SSE 3.5 mph - 0.00 in Snow Light Snow
12:39 AM 24.8°F 23.0°F 93% 30.04 in 2.5 miles Calm Calm - 0.00 in Snow Light Snow
12:48 AM 24.8°F 23.0°F 93% 30.04 in 3.0 miles SE 3.5 mph - 0.00 in Snow Light Snow
12:49 AM 25.0°F 23.0°F 92% 30.05 in 3.0 miles SE 3.5 mph - 0.00 in Snow Light Snow
1:03 AM 24.8°F 23.0°F 93% 30.04 in 3.0 miles Calm Calm - 0.01 in Snow Light Snow
1:54 AM 25.0°F 23.0°F 92% 30.02 in 4.0 miles Calm Calm - 0.01 in Snow Light Snow
2:30 AM 24.8°F 23.0°F 93% 30.00 in 7.0 miles Calm Calm - 0.00 in   Overcast
2:40 AM 24.8°F 23.0°F 93% 30.00 in 8.0 miles NE 3.5 mph - 0.00 in   Overcast
2:54 AM 25.0°F 23.0°F 92% 30.00 in 9.0 miles NE 3.5 mph - 0.00 in   Overcast
3:09 AM 24.8°F 23.0°F 93% 29.99 in 8.0 miles NE 4.6 mph - N/A   Overcast
3:54 AM 25.0°F 23.0°F 92% 29.97 in 8.0 miles NE 4.6 mph - 0.00 in   Overcast
4:54 AM 25.0°F 23.0°F 92% 29.96 in - ENE 3.5 mph - N/A   Overcast
5:43 AM 24.8°F 21.2°F 86% 29.95 in - NNE 3.5 mph - N/A   Overcast
5:54 AM 25.0°F 21.9°F 88% 29.96 in - Calm Calm - N/A   Overcast
6:54 AM 24.1°F 21.9°F 91% 29.97 in - NNE 3.5 mph - N/A   Overcast
7:54 AM 25.0°F 21.0°F 85% 29.98 in - NE 8.1 mph - N/A   Overcast
8:19 AM 24.8°F 21.2°F 86% 29.97 in - ENE 5.8 mph - N/A   Overcast
8:54 AM 25.0°F 19.9°F 81% 29.98 in - NNE 6.9 mph - N/A   Overcast
9:15 AM 24.8°F 19.4°F 80% 29.97 in - North 4.6 mph - N/A   Overcast
9:54 AM 26.1°F 19.0°F 75% 29.96 in - NNE 4.6 mph - N/A   Overcast
10:54 AM 28.0°F 19.9°F 72% 29.94 in - Calm Calm - N/A   Overcast
11:06 AM 28.4°F 21.2°F 74% 29.93 in - North 4.6 mph - N/A   Mostly Cloudy
11:54 AM 28.0°F 19.9°F 72% 29.91 in - Variable 3.5 mph - N/A   Partly Cloudy
12:36 PM 28.4°F 19.4°F 69% 29.88 in 10.0 miles NNE 3.5 mph - N/A   Mostly Cloudy
12:54 PM 28.0°F 19.9°F 72% 29.88 in 10.0 miles Variable 4.6 mph - N/A   Overcast
1:32 PM 28.4°F 19.4°F 69% 29.86 in 10.0 miles Calm Calm - N/A   Scattered Clouds
1:54 PM 30.0°F 21.0°F 69% 29.86 in 10.0 miles NNW 4.6 mph - N/A   Partly Cloudy
2:54 PM 30.9°F 21.0°F 67% 29.85 in 10.0 miles West 6.9 mph - N/A   Clear
3:54 PM 30.0°F 19.9°F 66% 29.84 in 10.0 miles WNW 5.8 mph - N/A   Mostly Cloudy
4:54 PM 28.9°F 18.0°F 64% 29.84 in 10.0 miles WNW 4.6 mph - N/A   Partly Cloudy
5:54 PM 28.0°F 18.0°F 66% 29.85 in 10.0 miles Calm Calm - N/A   Clear
6:54 PM 28.0°F 19.0°F 69% 29.86 in 10.0 miles Calm Calm - N/A   Clear
7:54 PM 25.0°F 19.0°F 78% 29.86 in 10.0 miles Calm Calm - N/A   Scattered Clouds
8:54 PM 26.1°F 19.9°F 78% 29.86 in 9.0 miles Calm Calm - N/A   Overcast
9:54 PM 28.0°F 21.9°F 78% 29.86 in 8.0 miles West 3.5 mph - N/A   Overcast
10:38 PM 28.4°F 23.0°F 80% 29.86 in 1.5 miles NNW 8.1 mph - N/A Snow Light Snow
10:41 PM 28.4°F 24.8°F 86% 29.86 in 0.8 miles NW 8.1 mph - 0.00 in Snow Light Snow
10:54 PM 27.0°F 25.0°F 92% 29.87 in 1.0 miles West 6.9 mph - 0.01 in Snow Light Snow
11:05 PM 28.4°F 24.8°F 86% 29.87 in 1.0 miles West 4.6 mph - N/A Snow Light Snow
11:25 PM 26.6°F 24.8°F 93% 29.88 in 0.8 miles WNW 8.1 mph - 0.01 in Snow Light Snow
11:38 PM 28.4°F 21.2°F 74% 29.87 in 2.0 miles WNW 13.8 mph 24.2 mph 0.01 in Snow Light Snow
11:44 PM 28.4°F 19.4°F 69% 29.87 in 7.0 miles WNW 16.1 mph 21.9 mph 0.01 in Snow Light Snow
11:54 PM 28.0°F 18.0°F 66% 29.88 in 10.0 miles West 17.3 mph 24.2 mph 0.01 in   Mostly Cloudy
Astronomy
Sunrise:07:06 AM (EST) Moon Rise:12:31 AM (EST)2/3
Sunset:05:21 PM (EST) Moon Set:10:57 AM (EST)2/3
Moon Phase
Feb. 03 Feb. 10 Feb. 17 Feb. 25 Mar. 04

Copyright © 2014 The Weather Underground, Inc.